Regional Weather Roundup
Issued by NWS State College, PA

Current Version | Previous Version | Text Only | Print | Product List | Glossary On
Versions: 1 2 3 4 5 6 7 8 9 10 11 12 13 14 15 16 17 18 19 20 21 22 23 24 25 26 27 28 29 30 31 32 33 34 35 36 37 38 39 40 41 42 43 44 45 46 47 48 49 50
000
ASUS41 KCTP 230110
RWRCTP

REGIONAL WEATHER ROUNDUP
NATIONAL WEATHER SERVICE STATE COLLEGE PA
800 PM EST FRI FEB 22 2019

Note: "fair" indicates few or no clouds below 12,000 feet with no
significant weather and/or obstructions to visibility.

* = STATION THAT DOES NOT REPORT PRECIPITATION /E.G. RAIN...SNOW...ETC/
    THUNDER OR FOG.

PAZ002>004-007>009-013>016-020>023-029>032-230200-
WESTERN PENNSYLVANIA

CITY           SKY/WX    TMP DP  RH WIND       PRES   REMARKS
ERIE           FAIR      29  20  69 NE6       30.44R
MEADVILLE      FAIR      30  22  72 N5        30.37S
FRANKLIN*      FAIR      33  20  58 CALM      30.37S
NEW CASTLE     FAIR      33  24  69 NE3       30.38F
BEAVER COUNTY  CLEAR     36  25  64 CALM      30.37F
BUTLER*        FAIR      34  25  69 E3        30.37F
PITTSBURGH INT CLOUDY    37  25  61 E5        30.36F
PITTSBURGH     FAIR      37  25  61 CALM      30.36S
INDIANA*       CLEAR     32  27  80 E3        30.40F
LATROBE        CLEAR     36  27  69 CALM      30.38S
WASHINGTON CO* FAIR      34  28  79 NE3       30.39S
$$

PAZ004>006-010>012-017>019-024>028-033>037-041-042-045-046-049>053-230200-
CENTRAL PENNSYLVANIA

CITY           SKY/WX    TMP DP  RH WIND       PRES   REMARKS
BRADFORD       FAIR      29  20  69 CALM      30.36R
DUBOIS         FAIR      33  17  51 CALM      30.35F
CLEARFIELD     FAIR      36  21  54 CALM      30.38R
JOHNSTOWN      FAIR      34  22  61 E3        30.33S
ALTOONA        FAIR      34  24  67 CALM      30.38R
STATE COLLEGE  CLEAR     36  21  55 CALM      30.39R
WILLIAMSPORT   FAIR      35  24  64 CALM      30.42S
SELINSGROVE    FAIR      33  27  78 CALM      30.43R
FT INDIANTOWN  CLOUDY    35  25  65 CALM      30.42R
CAPITAL CITY   FAIR      37  26  64 CALM      30.43R
HARRISBURG     CLOUDY    37  28  70 CALM      30.43R
YORK           FAIR      33  29  85 CALM      30.43R
$$

PAZ038>040-043-044-047-048-054-055-060>062-067>071-230200-
EASTERN PENNSYLVANIA

CITY           SKY/WX    TMP DP  RH WIND       PRES   REMARKS
SCRANTON       FAIR      31  22  69 N3        30.42S
MOUNT POCONO   FAIR      28  21  75 NW9       30.36R
ALLENTOWN      FAIR      38  22  52 N3        30.43R
QUAKERTOWN*    CLEAR     36  23  60 CALM      30.43R
READING        FAIR      38  27  64 CALM      30.42R
LANCASTER      FAIR      39  27  62 NW5       30.43R
COATESVILLE    FAIR      37  25  60 NW3       30.43R
POTTSTOWN      FAIR      37  22  54 NE3       30.44R
BLUE BELL      FAIR      37  25  60 CALM      30.45R
DOYLESTOWN     FAIR      36  23  59 CALM      30.42R
WILLOW GROVE   NOT AVBL
NORTH PHILA    FAIR      41  24  51 NE5       30.45R
PHILADELPHIA   CLOUDY    43  23  45 N7        30.43S
$$



USA.gov is the U.S. government's official web portal to all federal, state and local government web resources and services.